This demonstration page uses our WeatherBlox Daily Observations layout. Learn more.

Left ArrowRight Arrow

39.51506, -84.39828

Hourly Observations for February 7, 2020

Temp ( °F °C ) Dew Point ( °F °C ) Humidity (%) Winds ( mph kmh ) Pressure ( in mb ) Visibility ( mi km ) Precip ( " mm )
12:15 am 00:15 Cloudy 29 -1.8 26 -3.4 89 89 N 9 15 29.5 999 7 11.26538 0 0
12:35 am 00:35 Cloudy with Mist and Fog 28 -2 26 -3.5 90 90 NNW 8 13 29.5 999 5 8.0467 0 0
12:55 am 00:55 Cloudy 28 -2.1 25 -3.9 88 88 N 12 19 29.49 999 7 11.26538 0 0
1:15 am 01:15 Cloudy with Light Snow 28 -2.2 25 -3.7 90 90 N 10 17 29.48 998 3.5 5.63269 0 0
1:35 am 01:35 Cloudy with Light Snow 28 -2.3 25 -3.7 90 90 NNW 7 11 29.47 998 4 6.43736 0 0
1:55 am 01:55 Cloudy with Light Snow 28 -2.3 25 -3.7 90 90 NNW 9 15 29.47 998 5 8.0467 0 0
2:15 am 02:15 Cloudy with Light Snow 28 -2.4 25 -3.9 90 90 NNW 9 15 29.46 998 5 8.0467 0 0
2:35 am 02:35 Cloudy 28 -2.5 24 -4.3 88 88 NNW 10 17 29.46 998 7 11.26538 0 0
2:55 am 02:55 Cloudy with Light Snow 28 -2.5 24 -4.3 88 88 NNW 8 13 29.46 998 7 11.26538 0 0
3:15 am 03:15 Cloudy with Light Snow 28 -2.5 24 -4.3 88 88 NW 13 20 29.45 997 7 11.26538 0 0
3:35 am 03:35 Cloudy with Light Snow 27 -2.7 24 -4.5 88 88 NNW 13 20 29.46 998 5 8.0467 0 0
3:55 am 03:55 Cloudy with Light Snow 27 -2.8 24 -4.5 88 88 NW 7 11 29.48 998 3.5 5.63269 0 0
4:15 am 04:15 Cloudy with Light Snow 27 -2.8 24 -4.4 89 89 NW 5 7 29.48 998 4 6.43736 0 0
4:35 am 04:35 Cloudy with Light Snow 27 -2.9 24 -4.3 90 90 NW 6 9 29.48 998 4 6.43736 0 0
4:55 am 04:55 Cloudy with Light Snow 27 -2.8 25 -4.1 91 91 WNW 5 7 29.49 999 2.5 4.02335 0 0
5:15 am 05:15 Cloudy with Light Snow 27 -2.8 24 -4.2 90 90 WNW 7 11 29.51 999 3 4.82802 0 0
5:35 am 05:35 Cloudy with Light Snow 27 -2.8 25 -4.1 91 91 WNW 7 11 29.51 999 5 8.0467 0 0
5:55 am 05:55 Cloudy with Light Snow 27 -2.8 25 -4 92 92 NW 8 13 29.53 1000 1.75 2.816345 0 0
6:15 am 06:15 Cloudy with Light Snow 27 -2.9 25 -3.9 93 93 NNW 8 13 29.54 1000 2.5 4.02335 0 0
6:35 am 06:35 Cloudy with Light Snow 27 -2.8 25 -4 92 92 WNW 9 15 29.55 1001 2.5 4.02335 0 0
6:55 am 06:55 Cloudy with Light Snow 27 -2.8 24 -4.3 90 90 WNW 7 11 29.56 1001 3.5 5.63269 0 0
7:15 am 07:15 Cloudy with Light Snow 27 -2.9 24 -4.7 88 88 WNW 9 15 29.58 1002 7 11.26538 0 0
7:35 am 07:35 Cloudy with Light Snow 27 -3 24 -4.6 89 89 WNW 9 15 29.59 1002 5 8.0467 0 0
7:55 am 07:55 Cloudy with Light Snow 27 -3 23 -4.9 87 87 WNW 9 15 29.6 1002 7 11.26538 0 0
8:15 am 08:15 Cloudy with Light Snow 27 -3 23 -4.9 87 87 NW 10 17 29.62 1003 4 6.43736 0 0
8:35 am 08:35 Cloudy with Light Snow 26 -3.1 23 -4.8 88 88 W 7 11 29.63 1003 3 4.82802 0 0
8:55 am 08:55 Cloudy with Light Snow 27 -3 24 -4.6 89 89 W 9 15 29.64 1004 3 4.82802 0 0
9:15 am 09:15 Cloudy with Light Snow 27 -2.9 24 -4.4 90 90 W 8 13 29.66 1004 3 4.82802 0 0
9:35 am 09:35 Cloudy with Light Snow 27 -2.9 24 -4.5 89 89 W 9 15 29.67 1005 2.5 4.02335 0 0
9:55 am 09:55 Cloudy with Light Snow 27 -2.7 24 -4.5 88 88 W 9 15 29.68 1005 1.75 2.816345 0 0
10:15 am 10:15 Cloudy with Light Snow 28 -2.4 24 -4.4 86 86 W 9 15 29.7 1006 2 3.21868 0 0
10:35 am 10:35 Cloudy with Light Snow 28 -2.3 24 -4.4 86 86 W 9 15 29.71 1006 3.5 5.63269 0 0
10:55 am 10:55 Cloudy with Light Snow 28 -2.2 24 -4.5 84 84 W 9 15 29.72 1006 5 8.0467 0 0
11:15 am 11:15 Mostly Cloudy 29 -1.7 24 -4.6 81 81 W 8 13 29.73 1007 10 16.0934 0 0
11:35 am 11:35 Cloudy 29 -1.4 23 -4.8 78 78 WNW 10 17 29.74 1007 10 16.0934 0 0
11:55 am 11:55 Mostly Cloudy 30 -1 23 -4.9 75 75 WNW 14 22 29.76 1008 10 16.0934 0 0
12:15 pm 12:15 Mostly Cloudy 31 -0.4 24 -4.3 75 75 WNW 13 20 29.76 1008 10 16.0934 0 0
12:35 pm 12:35 Mostly Cloudy 31 -0.6 24 -4.5 75 75 W 13 20 29.77 1008 10 16.0934 0 0
12:55 pm 12:55 Cloudy 31 -0.6 24 -4.6 75 75 WNW 12 19 29.78 1008 10 16.0934 0 0
1:15 pm 13:15 Cloudy 33 0.4 24 -4.2 72 72 WNW 12 19 29.77 1008 10 16.0934 0 0
1:35 pm 13:35 Cloudy 32 -0.1 24 -4.7 71 71 NW 16 26 29.79 1009 10 16.0934 0 0
1:55 pm 13:55 Cloudy 32 -0.2 24 -4.7 72 72 W 13 20 29.8 1009 10 16.0934 0 0
2:15 pm 14:15 Mostly Cloudy 33 0.7 25 -4 71 71 WNW 14 22 29.8 1009 10 16.0934 0 0
2:35 pm 14:35 Cloudy 34 1.1 25 -4 69 69 W 13 20 29.81 1010 10 16.0934 0 0
2:55 pm 14:55 Cloudy 32 0.2 24 -4.7 70 70 W 17 28 29.82 1010 10 16.0934 0 0
3:15 pm 15:15 Cloudy 33 0.4 24 -4.7 69 69 W 14 22 29.84 1011 10 16.0934 0 0
3:35 pm 15:35 Sunny 33 0.8 23 -5.1 65 65 WNW 16 26 29.85 1011 10 16.0934 0 0
3:55 pm 15:55 Mostly Cloudy 34 1.3 24 -4.5 66 66 W 17 28 29.87 1012 10 16.0934 0 0
4:15 pm 16:15 Mostly Cloudy 35 1.4 23 -4.8 64 64 W 13 20 29.88 1012 10 16.0934 0 0
4:35 pm 16:35 Sunny 32 0.2 22 -5.4 66 66 W 9 15 29.9 1013 10 16.0934 0 0
4:55 pm 16:55 Sunny 33 0.7 21 -5.9 62 62 W 10 17 29.9 1013 10 16.0934 0 0
5:15 pm 17:15 Partly Cloudy 33 0.8 22 -5.6 63 63 W 10 17 29.91 1013 10 16.0934 0 0
5:35 pm 17:35 Sunny 32 0.1 21 -6 64 64 W 10 17 29.92 1013 10 16.0934 0 0
5:55 pm 17:55 Sunny 31 -0.4 22 -5.5 69 69 W 10 17 29.94 1014 10 16.0934 0 0
6:15 pm 18:15 Clear 30 -1.1 22 -5.4 73 73 WSW 7 11 29.95 1014 10 16.0934 0 0
6:35 pm 18:35 Partly Cloudy 29 -1.5 22 -5.4 75 75 WSW 5 7 29.97 1015 10 16.0934 0 0
6:55 pm 18:55 Partly Cloudy 28 -2 22 -5.6 77 77 W 5 7 29.97 1015 10 16.0934 0 0
7:15 pm 19:15 Partly Cloudy 29 -1.9 22 -5.6 76 76 WSW 6 9 29.98 1015 10 16.0934 0 0
7:35 pm 19:35 Mostly Cloudy 28 -2 22 -5.6 77 77 WSW 5 7 29.99 1016 10 16.0934 0 0
7:55 pm 19:55 Clear 28 -2.5 22 -5.7 79 79 WSW 6 9 30 1016 10 16.0934 0 0
8:15 pm 20:15 Clear 28 -2.4 22 -5.5 80 80 SW 7 11 30.01 1016 10 16.0934 0 0
8:35 pm 20:35 Clear 28 -2.5 22 -5.4 81 81 WSW 7 11 30.02 1017 10 16.0934 0 0
8:55 pm 20:55 Cloudy 28 -2.5 23 -5.2 82 82 WSW 6 9 30.03 1017 10 16.0934 0 0
9:15 pm 21:15 Clear 28 -2.3 23 -5.2 81 81 SW 5 7 30.03 1017 10 16.0934 0 0
9:35 pm 21:35 Partly Cloudy 27 -2.9 23 -4.8 87 87 SW 7 11 30.05 1018 10 16.0934 0 0
9:55 pm 21:55 Cloudy 28 -2.1 25 -3.9 88 88 SW 6 9 30.06 1018 10 16.0934 0 0
10:15 pm 22:15 Cloudy 28 -2.3 25 -3.8 90 90 SW 7 11 30.06 1018 10 16.0934 0 0
10:35 pm 22:35 Cloudy 29 -1.9 26 -3.4 90 90 WSW 6 9 30.06 1018 10 16.0934 0 0
10:55 pm 22:55 Clear 28 -2.5 25 -3.8 91 91 WSW 5 7 30.07 1018 10 16.0934 0 0
11:15 pm 23:15 Clear 27 -2.7 25 -3.7 93 93 SW 5 7 30.08 1019 10 16.0934 0 0
11:35 pm 23:35 Mostly Cloudy 27 -2.9 25 -3.8 94 94 WSW 3 6 30.08 1019 10 16.0934 0 0
11:55 pm 23:55 Cloudy 28 -2.2 27 -3 94 94 SW 5 7 30.09 1019 10 16.0934 0 0

Powered by AerisWeather